Location: ActonStarParty
(42.4766°N, 71.4538°W)
Time: 00:05:13
(UTC-04:00)

ISS - Visible Passes

Search period start: 30 July 2015 00:00
Search period end: 09 August 2015 00:00
Orbit: 401 x 403 km, 51.6° (Epoch: 29 July)

Date Brightness Start Highest point End Pass type
(mag) Time Alt. Az. Time Alt. Az. Time Alt. Az.
30 Jul -0.2 00:54:36 15° NNE 00:54:36 15° NNE 00:55:40 10° NE visible
30 Jul -0.5 02:28:13 10° NW 02:30:40 19° NNE 02:33:08 10° ENE visible
30 Jul -2.9 04:04:20 10° NW 04:07:35 64° NNE 04:10:49 10° ESE visible
30 Jul -1.4 20:45:46 10° SSE 20:47:15 13° SE 20:48:51 10° ESE visible
30 Jul -3.3 22:20:03 10° WSW 22:23:19 78° NNW 22:23:41 65° NNE visible
31 Jul0.300:04:15NE00:04:15NE23:56:37WNWvisible
31 Jul -0.3 01:36:57 16° N 01:37:26 17° N 01:39:42 10° NE visible
31 Jul -1.8 03:11:27 10° NW 03:14:32 38° NNE 03:17:37 10° E visible
31 Jul -2.5 04:48:01 10° WNW 04:50:55 29° SW 04:53:48 10° SSE visible
31 Jul -3.3 21:27:12 10° SW 21:30:23 55° SE 21:33:36 10° ENE visible
31 Jul -1.1 23:04:09 10° W 23:07:00 27° NNW 23:09:04 15° NNE visible
01 Aug -1.0 02:22:09 24° NE 02:22:09 24° NE 02:24:16 10° E visible
01 Aug -3.4 03:55:05 12° WNW 03:58:03 57° SW 04:01:16 10° SE visible
01 Aug -2.4 20:34:41 10° SSW 20:37:31 28° SE 20:40:25 10° ENE visible
01 Aug -1.9 22:10:48 10° W 22:13:53 39° NNW 22:16:59 10° NE visible
01 Aug -0.4 23:48:44 10° NW 23:50:59 17° N 23:51:30 16° N visible
02 Aug -1.1 04:42:28 11° SSW 04:42:28 11° SSW 04:42:48 10° SSW visible
02 Aug -2.9 21:17:38 10° WSW 21:20:52 66° NNW 21:24:07 10° NE visible
02 Aug -0.6 22:55:17 10° WNW 22:57:46 19° NNW 23:00:14 10° NE visible
03 Aug 0.0 00:32:47 10° NW 00:33:08 12° NNW 00:33:08 12° NNW visible
03 Aug -0.9 22:01:50 10° WNW 22:04:35 25° NNW 22:07:21 10° NE visible
03 Aug -0.4 23:39:40 10° NW 23:41:50 16° N 23:41:59 16° N visible
04 Aug -1.6 21:08:27 10° W 21:11:28 34° NNW 21:14:31 10° NE visible
04 Aug -0.4 22:46:23 10° NW 22:48:36 17° N 22:50:48 10° NE visible
05 Aug 0.1 00:23:16 10° NW 00:23:23 11° NW 00:23:23 11° NW visible
05 Aug -0.5 21:52:58 10° WNW 21:55:23 19° N 21:57:47 10° NE visible
05 Aug -0.4 23:30:20 10° NW 23:32:09 17° N 23:32:09 17° N visible
06 Aug -0.9 20:59:30 10° WNW 21:02:12 23° NNW 21:04:53 10° NE visible
06 Aug -0.6 22:37:17 10° NW 22:39:27 16° N 22:40:56 13° NE visible
07 Aug -0.5 21:44:03 10° NW 21:46:14 16° N 21:48:24 10° NE visible
07 Aug -0.5 23:20:48 10° NW 23:22:17 19° NNW 23:22:17 19° NNW visible
08 Aug -0.6 20:50:40 10° NW 20:53:00 18° N 20:55:20 10° NE visible
08 Aug -0.9 22:27:54 10° NW 22:30:18 19° N 22:31:03 17° NNE visible
